Tracking 25648 objects as of 18-May-2022
HD Live streaming from Space Station
objects crossing your sky now

SPACEBEE-152

Track SPACEBEE-152 now!
10-day predictions


NORAD ID: 52414
Int'l Code: 2022-047W
Perigee: 529.3 km
Apogee: 540.5 km
Inclination: 97.4 °
Period: 95.2 minutes
Semi major axis: 6905 km
RCS: Unknown
Launch date: May 2, 2022
Source: United States (US)
Launch site: Rocket Lab Launch Complex (RLLC)
aabbcc
Your satellite tracking list
Your tracking list is empty




NASA's NSSDC Master Catalog

Two Line Element Set (TLE):
1 52414U 22047W   22137.13625385  .00009625  00000-0  55167-3 0  9998
2 52414  97.4490 222.7380 0008128 286.4438  73.5900 15.12767643  3615
Source of the keplerian elements: AFSPC